Year,Month,Day,Hour,Minute,Value (Times are PST for temperature in C)
2018,11,27,02,43,10.30
2018,11,27,02,44,10.30
2018,11,27,02,45,10.30
2018,11,27,02,46,10.30
2018,11,27,02,47,10.30
2018,11,27,02,48,10.20
2018,11,27,02,49,10.20
2018,11,27,02,50,10.20
2018,11,27,02,51,10.20
2018,11,27,02,52,10.20
2018,11,27,02,53,10.10
2018,11,27,02,54,10.10
2018,11,27,02,55,10.10
2018,11,27,02,56,10.10
2018,11,27,02,57,10.10
2018,11,27,02,58,10.10
2018,11,27,02,59,10.10
2018,11,27,03,00,10.10
2018,11,27,03,01,10.10
2018,11,27,03,02,10.10
2018,11,27,03,03,10.10
2018,11,27,03,04,10.10
2018,11,27,03,05,10.10
2018,11,27,03,06,10.10
2018,11,27,03,07,10.10
2018,11,27,03,08,10.10
2018,11,27,03,09,10.10
2018,11,27,03,10,10.10
2018,11,27,03,11,10.10
2018,11,27,03,12,10.10
2018,11,27,03,13,10.10
2018,11,27,03,14,10.10
2018,11,27,03,15,10.10
2018,11,27,03,16,10.10
2018,11,27,03,17,10.10
2018,11,27,03,18,10.10
2018,11,27,03,19,10.10
2018,11,27,03,20,10.10
2018,11,27,03,21,10.10
2018,11,27,03,22,10.10
2018,11,27,03,23,10.10
2018,11,27,03,24,10.10
2018,11,27,03,25,10.10
2018,11,27,03,26,10.10
2018,11,27,03,27,10.10
2018,11,27,03,28,10.10
2018,11,27,03,29,10.10
2018,11,27,03,30,10.10
2018,11,27,03,31,10.10
2018,11,27,03,32,10.10
2018,11,27,03,33,10.10
2018,11,27,03,34,10.10
2018,11,27,03,35,10.10
2018,11,27,03,36,10.10
2018,11,27,03,37,10.20
2018,11,27,03,38,10.20
2018,11,27,03,39,10.20
2018,11,27,03,40,10.20
2018,11,27,03,41,10.20
2018,11,27,03,42,10.20
2018,11,27,03,43,10.20
2018,11,27,03,44,10.20
2018,11,27,03,45,10.20
2018,11,27,03,46,10.20
2018,11,27,03,47,10.20
2018,11,27,03,48,10.20
2018,11,27,03,49,10.20
2018,11,27,03,50,10.20
2018,11,27,03,51,10.20
2018,11,27,03,52,10.20
2018,11,27,03,53,10.20
2018,11,27,03,54,10.20
2018,11,27,03,55,10.20
2018,11,27,03,56,10.30
2018,11,27,03,57,10.30
2018,11,27,03,58,10.30
2018,11,27,03,59,10.30
2018,11,27,04,00,10.30
2018,11,27,04,01,10.30
2018,11,27,04,02,10.30
2018,11,27,04,03,10.30
2018,11,27,04,04,10.30
2018,11,27,04,05,10.30
2018,11,27,04,06,10.30
2018,11,27,04,07,10.40
2018,11,27,04,08,10.40
2018,11,27,04,09,10.40
2018,11,27,04,10,10.40
2018,11,27,04,11,10.40
2018,11,27,04,12,10.40
2018,11,27,04,13,10.40
2018,11,27,04,14,10.40
2018,11,27,04,15,10.50
2018,11,27,04,16,10.50
2018,11,27,04,17,10.50
2018,11,27,04,18,10.50
2018,11,27,04,19,10.50
2018,11,27,04,20,10.50
2018,11,27,04,21,10.50
2018,11,27,04,22,10.50
2018,11,27,04,23,10.50
2018,11,27,04,24,10.50
2018,11,27,04,25,10.50
2018,11,27,04,26,10.60
2018,11,27,04,27,10.60
2018,11,27,04,28,10.60
2018,11,27,04,29,10.60
2018,11,27,04,30,10.60
2018,11,27,04,31,10.60
2018,11,27,04,32,10.60
2018,11,27,04,33,10.60
2018,11,27,04,34,10.60
2018,11,27,04,35,10.60
2018,11,27,04,36,10.60
2018,11,27,04,37,10.60
2018,11,27,04,38,10.60
2018,11,27,04,39,10.60
2018,11,27,04,40,10.50
2018,11,27,04,41,10.50
2018,11,27,04,42,10.50
2018,11,27,04,43,10.50
2018,11,27,04,44,10.50
2018,11,27,04,45,10.50
2018,11,27,04,46,10.40
2018,11,27,04,47,10.40
2018,11,27,04,48,10.40
2018,11,27,04,49,10.40
2018,11,27,04,50,10.40
2018,11,27,04,51,10.40
2018,11,27,04,52,10.40
2018,11,27,04,53,10.30
2018,11,27,04,54,10.30
2018,11,27,04,55,10.30
2018,11,27,04,56,10.30
2018,11,27,04,57,10.30
2018,11,27,04,58,10.30
2018,11,27,04,59,10.30
2018,11,27,05,00,10.30
2018,11,27,05,01,10.20
2018,11,27,05,02,10.20
2018,11,27,05,03,10.20
2018,11,27,05,04,10.20
2018,11,27,05,05,10.20
2018,11,27,05,06,10.20
2018,11,27,05,07,10.20
2018,11,27,05,08,10.10
2018,11,27,05,09,10.10
2018,11,27,05,10,10.10
2018,11,27,05,11,10.10
2018,11,27,05,12,10.10
2018,11,27,05,13,10.10
2018,11,27,05,14,10.10
2018,11,27,05,15,10.10
2018,11,27,05,16,10.10
2018,11,27,05,17,10.10
2018,11,27,05,18,10.10
2018,11,27,05,19,10.10
2018,11,27,05,20,10.20
2018,11,27,05,21,10.20
2018,11,27,05,22,10.10
2018,11,27,05,23,10.10
2018,11,27,05,24,10.10
2018,11,27,05,25,10.10
2018,11,27,05,26,10.10
2018,11,27,05,27,10.10
2018,11,27,05,28,10.10
2018,11,27,05,29,10.10
2018,11,27,05,30,10.10
2018,11,27,05,31,10.10
2018,11,27,05,32,10.10
2018,11,27,05,33,10.10
2018,11,27,05,34,10.10
2018,11,27,05,35,10.10
2018,11,27,05,36,10.10
2018,11,27,05,37,10.10
2018,11,27,05,38,10.10
2018,11,27,05,39,10.10
2018,11,27,05,40,10.10
2018,11,27,05,41,10.10
2018,11,27,05,42,10.10
2018,11,27,05,43,10.10
2018,11,27,05,44,10.10
2018,11,27,05,45,10.10
2018,11,27,05,46,10.10
2018,11,27,05,47,10.10
2018,11,27,05,48,10.10
2018,11,27,05,49,10.10
2018,11,27,05,50,10.10
2018,11,27,05,51,10.10
2018,11,27,05,52,10.20
2018,11,27,05,53,10.20
2018,11,27,05,54,10.10
2018,11,27,05,55,10.10
2018,11,27,05,56,10.10
2018,11,27,05,57,10.10
2018,11,27,05,58,10.10
2018,11,27,05,59,10.10
2018,11,27,06,00,10.10
2018,11,27,06,01,10.10
2018,11,27,06,02,10.10
2018,11,27,06,03,10.10
2018,11,27,06,04,10.10
2018,11,27,06,05,10.00
2018,11,27,06,06,10.00
2018,11,27,06,07,10.00
2018,11,27,06,08,10.00
2018,11,27,06,09,9.90
2018,11,27,06,10,9.90
2018,11,27,06,11,9.90
2018,11,27,06,12,9.90
2018,11,27,06,13,9.90
2018,11,27,06,14,10.00
2018,11,27,06,15,10.00
2018,11,27,06,16,10.00
2018,11,27,06,17,10.00
2018,11,27,06,18,10.00
2018,11,27,06,19,10.00
2018,11,27,06,20,10.00
2018,11,27,06,21,9.90
2018,11,27,06,22,9.90
2018,11,27,06,23,9.90
2018,11,27,06,24,9.90
2018,11,27,06,25,9.90
2018,11,27,06,26,9.90
2018,11,27,06,27,9.90
2018,11,27,06,28,10.00
2018,11,27,06,29,10.00
2018,11,27,06,30,10.10
2018,11,27,06,31,10.10
2018,11,27,06,32,10.10
2018,11,27,06,33,10.10
2018,11,27,06,34,10.10
2018,11,27,06,35,10.10
2018,11,27,06,36,10.10
2018,11,27,06,37,10.10
2018,11,27,06,38,10.10
2018,11,27,06,39,10.00
2018,11,27,06,40,10.00
2018,11,27,06,41,10.00
2018,11,27,06,42,9.90
2018,11,27,06,43,9.90
2018,11,27,06,44,9.90
2018,11,27,06,45,9.90
2018,11,27,06,46,9.90
2018,11,27,06,47,9.90
2018,11,27,06,48,9.90
2018,11,27,06,49,9.90
2018,11,27,06,50,9.90
2018,11,27,06,51,9.90
2018,11,27,06,52,9.90
2018,11,27,06,53,9.90
2018,11,27,06,54,9.90
2018,11,27,06,55,9.90
2018,11,27,06,56,9.90
2018,11,27,06,57,9.90
2018,11,27,06,58,9.90
2018,11,27,06,59,9.90
2018,11,27,07,00,9.90
2018,11,27,07,01,9.90
2018,11,27,07,02,9.90
2018,11,27,07,03,9.90
2018,11,27,07,04,9.90
2018,11,27,07,05,10.00
2018,11,27,07,06,10.00
2018,11,27,07,07,10.00
2018,11,27,07,08,10.00
2018,11,27,07,09,10.00
2018,11,27,07,10,10.00
2018,11,27,07,11,10.00
2018,11,27,07,12,10.10
2018,11,27,07,13,10.10
2018,11,27,07,14,10.10
2018,11,27,07,15,10.10
2018,11,27,07,16,10.10
2018,11,27,07,17,10.10
2018,11,27,07,18,10.10
2018,11,27,07,19,10.00
2018,11,27,07,20,10.00
2018,11,27,07,21,10.00
2018,11,27,07,22,10.00
2018,11,27,07,23,9.90
2018,11,27,07,24,9.90
2018,11,27,07,25,9.90
2018,11,27,07,26,9.90
2018,11,27,07,27,9.90
2018,11,27,07,28,9.90
2018,11,27,07,29,9.90
2018,11,27,07,30,9.90
2018,11,27,07,31,9.90
2018,11,27,07,32,9.90
2018,11,27,07,33,9.90
2018,11,27,07,34,9.90
2018,11,27,07,35,10.00
2018,11,27,07,36,10.00
2018,11,27,07,37,10.00
2018,11,27,07,38,10.10
2018,11,27,07,39,10.10
2018,11,27,07,40,10.10
2018,11,27,07,41,10.10
2018,11,27,07,42,10.10
2018,11,27,07,43,10.10
2018,11,27,07,44,10.20
2018,11,27,07,45,10.20
2018,11,27,07,46,10.20
2018,11,27,07,47,10.20
2018,11,27,07,48,10.20
2018,11,27,07,49,10.20
2018,11,27,07,50,10.20
2018,11,27,07,51,10.30
2018,11,27,07,52,10.30
2018,11,27,07,53,10.30
2018,11,27,07,54,10.30
2018,11,27,07,55,10.30
2018,11,27,07,56,10.30
2018,11,27,07,57,10.30
2018,11,27,07,58,10.20
2018,11,27,07,59,10.20
2018,11,27,08,00,10.20
2018,11,27,08,01,10.20
2018,11,27,08,02,10.20
2018,11,27,08,03,10.20
2018,11,27,08,04,10.20
2018,11,27,08,05,10.20
2018,11,27,08,06,10.30
2018,11,27,08,07,10.30
2018,11,27,08,08,10.30
2018,11,27,08,09,10.30
2018,11,27,08,10,10.20
2018,11,27,08,11,10.20
2018,11,27,08,12,10.20
2018,11,27,08,13,10.20
2018,11,27,08,14,10.20
2018,11,27,08,15,10.20
2018,11,27,08,16,10.20
2018,11,27,08,17,10.20
2018,11,27,08,18,10.20
2018,11,27,08,19,10.20
2018,11,27,08,20,10.20
2018,11,27,08,21,10.20
2018,11,27,08,22,10.20
2018,11,27,08,23,10.20
2018,11,27,08,24,10.20
2018,11,27,08,25,10.30
2018,11,27,08,26,10.30
2018,11,27,08,27,10.30
2018,11,27,08,28,10.20
2018,11,27,08,29,10.20
2018,11,27,08,30,10.20
2018,11,27,08,31,10.20
2018,11,27,08,32,10.20
2018,11,27,08,33,10.20
2018,11,27,08,34,10.20
2018,11,27,08,35,10.30
2018,11,27,08,36,10.30
2018,11,27,08,37,10.30
2018,11,27,08,38,10.30
2018,11,27,08,39,10.30
2018,11,27,08,40,10.30
2018,11,27,08,41,10.30
2018,11,27,08,42,10.30
2018,11,27,08,43,10.30
2018,11,27,08,44,10.30
2018,11,27,08,45,10.30
2018,11,27,08,46,10.30
2018,11,27,08,47,10.30
2018,11,27,08,48,10.40
2018,11,27,08,49,10.40
2018,11,27,08,50,10.40
2018,11,27,08,51,10.40
2018,11,27,08,52,10.40
2018,11,27,08,53,10.30
2018,11,27,08,54,10.30
2018,11,27,08,55,10.30
2018,11,27,08,56,10.30
2018,11,27,08,57,10.30
2018,11,27,08,58,10.30
2018,11,27,08,59,10.30
2018,11,27,09,00,10.30
2018,11,27,09,01,10.30
2018,11,27,09,02,10.30
2018,11,27,09,03,10.30
2018,11,27,09,04,10.30
2018,11,27,09,05,10.30
2018,11,27,09,06,10.30
2018,11,27,09,07,10.30
2018,11,27,09,08,10.30
2018,11,27,09,09,10.30
2018,11,27,09,10,10.30
2018,11,27,09,11,10.30
2018,11,27,09,12,10.30
2018,11,27,09,13,10.30
2018,11,27,09,14,10.30
2018,11,27,09,15,10.30
2018,11,27,09,16,10.30
2018,11,27,09,17,10.30
2018,11,27,09,18,10.30
2018,11,27,09,19,10.30
2018,11,27,09,20,10.30
2018,11,27,09,21,10.30
2018,11,27,09,22,10.30
2018,11,27,09,23,10.30
2018,11,27,09,24,10.40
2018,11,27,09,25,10.40
2018,11,27,09,26,10.40
2018,11,27,09,27,10.40
2018,11,27,09,28,10.40
2018,11,27,09,29,10.40
2018,11,27,09,30,10.40
2018,11,27,09,31,10.40
2018,11,27,09,32,10.50
2018,11,27,09,33,10.50
2018,11,27,09,34,10.50
2018,11,27,09,35,10.60
2018,11,27,09,36,10.60
2018,11,27,09,37,10.60
2018,11,27,09,38,10.60
2018,11,27,09,39,10.60
2018,11,27,09,40,10.60
2018,11,27,09,41,10.60
2018,11,27,09,42,10.60
2018,11,27,09,43,10.60
2018,11,27,09,44,10.60
2018,11,27,09,45,10.70
2018,11,27,09,46,10.70
2018,11,27,09,47,10.60
2018,11,27,09,48,10.60
2018,11,27,09,49,10.60
2018,11,27,09,50,10.60
2018,11,27,09,51,10.60
2018,11,27,09,52,10.70
2018,11,27,09,53,10.70
2018,11,27,09,54,10.70
2018,11,27,09,55,10.70
2018,11,27,09,56,10.70
2018,11,27,09,57,10.70
2018,11,27,09,58,10.80
2018,11,27,09,59,10.80
2018,11,27,10,00,10.80
2018,11,27,10,01,10.80
2018,11,27,10,02,10.80
2018,11,27,10,03,10.80
2018,11,27,10,04,10.80
2018,11,27,10,05,10.80
2018,11,27,10,06,10.80
2018,11,27,10,07,10.80
2018,11,27,10,08,10.80
2018,11,27,10,09,10.80
2018,11,27,10,10,10.80
2018,11,27,10,11,10.80
2018,11,27,10,12,10.80
2018,11,27,10,13,10.80
2018,11,27,10,14,10.80
2018,11,27,10,15,10.70
2018,11,27,10,16,10.70
2018,11,27,10,17,10.70
2018,11,27,10,18,10.70
2018,11,27,10,19,10.70
2018,11,27,10,20,10.70
2018,11,27,10,21,10.70
2018,11,27,10,22,10.70
2018,11,27,10,23,10.70
2018,11,27,10,24,10.70
2018,11,27,10,25,10.80
2018,11,27,10,26,10.80
2018,11,27,10,27,10.80
2018,11,27,10,28,10.80
2018,11,27,10,29,10.80
2018,11,27,10,30,10.90
2018,11,27,10,31,10.90
2018,11,27,10,32,10.80
2018,11,27,10,33,10.80
2018,11,27,10,34,10.80
2018,11,27,10,35,10.80
2018,11,27,10,36,10.70
2018,11,27,10,37,10.70
2018,11,27,10,38,10.70
2018,11,27,10,39,10.70
2018,11,27,10,40,10.70
2018,11,27,10,41,10.60
2018,11,27,10,42,10.60
2018,11,27,10,43,10.60
2018,11,27,10,44,10.60
2018,11,27,10,45,10.60
2018,11,27,10,46,10.60
2018,11,27,10,47,10.60
2018,11,27,10,48,10.50
2018,11,27,10,49,10.50
2018,11,27,10,50,10.60
2018,11,27,10,51,10.60
2018,11,27,10,52,10.60
2018,11,27,10,53,10.60
2018,11,27,10,54,10.60
2018,11,27,10,55,10.60
2018,11,27,10,56,10.50
2018,11,27,10,57,10.50
2018,11,27,10,58,10.50
2018,11,27,10,59,10.40
2018,11,27,11,00,10.40
2018,11,27,11,01,10.40
2018,11,27,11,02,10.40
2018,11,27,11,03,10.30
2018,11,27,11,04,10.30
2018,11,27,11,05,10.30
2018,11,27,11,06,10.30
2018,11,27,11,07,10.30
2018,11,27,11,08,10.30
2018,11,27,11,09,10.30
2018,11,27,11,10,10.30
2018,11,27,11,11,10.20
2018,11,27,11,12,10.20
2018,11,27,11,13,10.20
2018,11,27,11,14,10.10
2018,11,27,11,15,10.10
2018,11,27,11,16,10.10
2018,11,27,11,17,10.20
2018,11,27,11,18,10.20
2018,11,27,11,19,10.20
2018,11,27,11,20,10.20
2018,11,27,11,21,10.20
2018,11,27,11,22,10.20
2018,11,27,11,23,10.20
2018,11,27,11,24,10.20
2018,11,27,11,25,10.20
2018,11,27,11,26,10.10
2018,11,27,11,27,10.10
2018,11,27,11,28,10.10
2018,11,27,11,29,10.10
2018,11,27,11,30,10.10
2018,11,27,11,31,10.10
2018,11,27,11,32,10.10
2018,11,27,11,33,10.10
2018,11,27,11,34,10.10
2018,11,27,11,35,10.20
2018,11,27,11,36,10.20
2018,11,27,11,37,10.30
2018,11,27,11,38,10.30
2018,11,27,11,39,10.30
2018,11,27,11,40,10.30
2018,11,27,11,41,10.40
2018,11,27,11,42,10.40
2018,11,27,11,43,10.40
2018,11,27,11,44,10.40
2018,11,27,11,45,10.50
2018,11,27,11,46,10.50
2018,11,27,11,47,10.50
2018,11,27,11,48,10.50
2018,11,27,11,49,10.60
2018,11,27,11,50,10.60
2018,11,27,11,51,10.60
2018,11,27,11,52,10.60
2018,11,27,11,53,10.60
2018,11,27,11,54,10.60
2018,11,27,11,55,10.60
2018,11,27,11,56,10.60
2018,11,27,11,57,10.60
2018,11,27,11,58,10.60
2018,11,27,11,59,10.60
2018,11,27,12,00,10.50
2018,11,27,12,01,10.50
2018,11,27,12,02,10.50
2018,11,27,12,03,10.50
2018,11,27,12,04,10.50
2018,11,27,12,05,10.50
2018,11,27,12,06,10.50
2018,11,27,12,07,10.60
2018,11,27,12,08,10.60
2018,11,27,12,09,10.60
2018,11,27,12,10,10.60
2018,11,27,12,11,10.60
2018,11,27,12,12,10.60
2018,11,27,12,13,10.70
2018,11,27,12,14,10.70
2018,11,27,12,15,10.70
2018,11,27,12,16,10.70
2018,11,27,12,17,10.70
2018,11,27,12,18,10.70
2018,11,27,12,19,10.70
2018,11,27,12,20,10.80
2018,11,27,12,21,10.80
2018,11,27,12,22,10.80
2018,11,27,12,23,10.80
2018,11,27,12,24,10.80
2018,11,27,12,25,10.80
2018,11,27,12,26,10.80
2018,11,27,12,27,10.80
2018,11,27,12,28,10.80
2018,11,27,12,29,10.80
2018,11,27,12,30,10.80
2018,11,27,12,31,10.80
2018,11,27,12,32,10.80
2018,11,27,12,33,10.80
2018,11,27,12,34,10.80
2018,11,27,12,35,10.80
2018,11,27,12,36,10.80
2018,11,27,12,37,10.80
2018,11,27,12,38,10.80
2018,11,27,12,39,10.80
2018,11,27,12,40,10.80
2018,11,27,12,41,10.80
2018,11,27,12,42,10.80
2018,11,27,12,43,10.90
2018,11,27,12,44,10.90
2018,11,27,12,45,10.90
2018,11,27,12,46,10.90
2018,11,27,12,47,10.90
2018,11,27,12,48,10.90
2018,11,27,12,49,10.90
2018,11,27,12,50,10.90
2018,11,27,12,51,10.90
2018,11,27,12,52,11.00
2018,11,27,12,53,11.00
2018,11,27,12,54,11.00
2018,11,27,12,55,11.10
2018,11,27,12,56,11.10
2018,11,27,12,57,11.10
2018,11,27,12,58,11.10
2018,11,27,12,59,11.10
2018,11,27,13,00,11.10
2018,11,27,13,01,11.20
2018,11,27,13,02,11.20
2018,11,27,13,03,11.20
2018,11,27,13,04,11.20
2018,11,27,13,05,11.10
2018,11,27,13,06,11.10
2018,11,27,13,07,11.10
2018,11,27,13,08,11.00
2018,11,27,13,09,11.00
2018,11,27,13,10,11.00
2018,11,27,13,11,10.90
2018,11,27,13,12,10.90
2018,11,27,13,13,10.90
2018,11,27,13,14,10.80
2018,11,27,13,15,10.80
2018,11,27,13,16,10.80
2018,11,27,13,17,10.80
2018,11,27,13,18,10.80
2018,11,27,13,19,10.80
2018,11,27,13,20,10.80
2018,11,27,13,21,10.80
2018,11,27,13,22,10.90
2018,11,27,13,23,10.90
2018,11,27,13,24,10.90
2018,11,27,13,25,10.90
2018,11,27,13,26,10.90
2018,11,27,13,27,10.90
2018,11,27,13,28,10.90
2018,11,27,13,29,10.90
2018,11,27,13,30,10.90
2018,11,27,13,31,10.90
2018,11,27,13,32,10.90
2018,11,27,13,33,10.90
2018,11,27,13,34,10.90
2018,11,27,13,35,10.90
2018,11,27,13,36,10.90
2018,11,27,13,37,10.90
2018,11,27,13,38,10.90
2018,11,27,13,39,10.90
2018,11,27,13,40,10.90
2018,11,27,13,41,10.90
2018,11,27,13,42,10.90
2018,11,27,13,43,10.90
2018,11,27,13,44,10.90
2018,11,27,13,45,10.90
2018,11,27,13,46,10.90
2018,11,27,13,47,10.90
2018,11,27,13,48,10.90
2018,11,27,13,49,10.90
2018,11,27,13,50,10.80
2018,11,27,13,51,10.80
2018,11,27,13,52,10.80
2018,11,27,13,53,10.80
2018,11,27,13,54,10.80
2018,11,27,13,55,10.80
2018,11,27,13,56,10.80
2018,11,27,13,57,10.80
2018,11,27,13,58,10.80
2018,11,27,13,59,10.70
2018,11,27,14,00,10.70
2018,11,27,14,01,10.70
2018,11,27,14,02,10.70
2018,11,27,14,03,10.70
2018,11,27,14,04,10.70
2018,11,27,14,05,10.70
2018,11,27,14,06,10.70
2018,11,27,14,07,10.70
2018,11,27,14,08,10.70
2018,11,27,14,09,10.80
2018,11,27,14,10,10.80
2018,11,27,14,11,10.80
2018,11,27,14,12,10.90
2018,11,27,14,13,10.90
2018,11,27,14,14,10.90
2018,11,27,14,15,10.90
2018,11,27,14,16,10.90
2018,11,27,14,17,10.90
2018,11,27,14,18,10.90
2018,11,27,14,19,10.90
2018,11,27,14,20,10.90
2018,11,27,14,21,10.80
2018,11,27,14,22,10.80
2018,11,27,14,23,10.80
2018,11,27,14,24,10.80
2018,11,27,14,25,10.80
2018,11,27,14,26,10.80
2018,11,27,14,27,10.80
2018,11,27,14,28,10.80
2018,11,27,14,29,10.80
2018,11,27,14,30,10.80
2018,11,27,14,31,10.80
2018,11,27,14,32,10.80
2018,11,27,14,33,10.80
2018,11,27,14,34,10.80
2018,11,27,14,35,10.80
2018,11,27,14,36,10.80
2018,11,27,14,37,10.80
2018,11,27,14,38,10.80
2018,11,27,14,39,10.80
2018,11,27,14,40,10.80
2018,11,27,14,41,10.80
2018,11,27,14,42,10.80
2018,11,27,14,43,10.80
2018,11,27,14,44,10.80
2018,11,27,14,45,10.80
2018,11,27,14,46,10.80
2018,11,27,14,47,10.80
2018,11,27,14,48,10.80
2018,11,27,14,49,10.70
2018,11,27,14,50,10.70
2018,11,27,14,51,10.70
2018,11,27,14,52,10.70
2018,11,27,14,53,10.70
2018,11,27,14,54,10.60
2018,11,27,14,55,10.60
2018,11,27,14,56,10.60
2018,11,27,14,57,10.60
2018,11,27,14,58,10.50
2018,11,27,14,59,10.50
2018,11,27,15,00,10.50
2018,11,27,15,01,10.50
2018,11,27,15,02,10.50
2018,11,27,15,03,10.50
2018,11,27,15,04,10.50
2018,11,27,15,05,10.50
2018,11,27,15,06,10.60
2018,11,27,15,07,10.50
2018,11,27,15,08,10.50
2018,11,27,15,09,10.50
2018,11,27,15,10,10.50
2018,11,27,15,11,10.50
2018,11,27,15,12,10.50
2018,11,27,15,13,10.50
2018,11,27,15,14,10.50
2018,11,27,15,15,10.50
2018,11,27,15,16,10.50
2018,11,27,15,17,10.40
2018,11,27,15,18,10.40
2018,11,27,15,19,10.40
2018,11,27,15,20,10.40
2018,11,27,15,21,10.40
2018,11,27,15,22,10.50
2018,11,27,15,23,10.50
2018,11,27,15,24,10.50
2018,11,27,15,25,10.50
2018,11,27,15,26,10.40
2018,11,27,15,27,10.40
2018,11,27,15,28,10.40
2018,11,27,15,29,10.50
2018,11,27,15,30,10.40
2018,11,27,15,31,10.40
2018,11,27,15,32,10.40
2018,11,27,15,33,10.40
2018,11,27,15,34,10.40
2018,11,27,15,35,10.30
2018,11,27,15,36,10.30
2018,11,27,15,37,10.30
2018,11,27,15,38,10.30
2018,11,27,15,39,10.30
2018,11,27,15,40,10.30
2018,11,27,15,41,10.30
2018,11,27,15,42,10.20
2018,11,27,15,43,10.20
2018,11,27,15,44,10.10
2018,11,27,15,45,10.10
2018,11,27,15,46,10.10
2018,11,27,15,47,10.00
2018,11,27,15,48,10.00
2018,11,27,15,49,10.00
2018,11,27,15,50,9.90
2018,11,27,15,51,9.90
2018,11,27,15,52,9.80
2018,11,27,15,53,9.80
2018,11,27,15,54,9.80
2018,11,27,15,55,9.70
2018,11,27,15,56,9.70
2018,11,27,15,57,9.70
2018,11,27,15,58,9.70
2018,11,27,15,59,9.70
2018,11,27,16,00,9.60
2018,11,27,16,01,9.60
2018,11,27,16,02,9.60
2018,11,27,16,03,9.60
2018,11,27,16,04,9.50
2018,11,27,16,05,9.50
2018,11,27,16,06,9.50
2018,11,27,16,07,9.40
2018,11,27,16,08,9.40
2018,11,27,16,09,9.40
2018,11,27,16,10,9.40
2018,11,27,16,11,9.40
2018,11,27,16,12,9.40
2018,11,27,16,13,9.40
2018,11,27,16,14,9.40
2018,11,27,16,15,9.40
2018,11,27,16,16,9.30
2018,11,27,16,17,9.30
2018,11,27,16,18,9.30
2018,11,27,16,19,9.30
2018,11,27,16,20,9.30
2018,11,27,16,21,9.30
2018,11,27,16,22,9.30
2018,11,27,16,23,9.30
2018,11,27,16,24,9.30
2018,11,27,16,25,9.30
2018,11,27,16,26,9.30
2018,11,27,16,27,9.30
2018,11,27,16,28,9.30
2018,11,27,16,29,9.30
2018,11,27,16,30,9.30
2018,11,27,16,31,9.30
2018,11,27,16,32,9.20
2018,11,27,16,33,9.20
2018,11,27,16,34,9.20
2018,11,27,16,35,9.20
2018,11,27,16,36,9.20
2018,11,27,16,37,9.30
2018,11,27,16,38,9.30
2018,11,27,16,39,9.30
2018,11,27,16,40,9.30
2018,11,27,16,41,9.30
2018,11,27,16,42,9.30
2018,11,27,16,43,9.20
2018,11,27,16,44,9.20
2018,11,27,16,45,9.20
2018,11,27,16,46,9.20
2018,11,27,16,47,9.20
2018,11,27,16,48,9.20
2018,11,27,16,49,9.20
2018,11,27,16,50,9.20
2018,11,27,16,51,9.20
2018,11,27,16,52,9.20
2018,11,27,16,53,9.20
2018,11,27,16,54,9.20
2018,11,27,16,55,9.10
2018,11,27,16,56,9.10
2018,11,27,16,57,9.10
2018,11,27,16,58,9.10
2018,11,27,16,59,9.10
2018,11,27,17,00,9.10
2018,11,27,17,01,9.10
2018,11,27,17,02,9.10
2018,11,27,17,03,9.10
2018,11,27,17,04,9.10
2018,11,27,17,05,9.10
2018,11,27,17,06,9.00
2018,11,27,17,07,9.00
2018,11,27,17,08,9.00
2018,11,27,17,09,9.00
2018,11,27,17,10,9.00
2018,11,27,17,11,9.00
2018,11,27,17,12,8.90
2018,11,27,17,13,8.90
2018,11,27,17,14,8.90
2018,11,27,17,15,8.90
2018,11,27,17,16,8.90
2018,11,27,17,17,9.00
2018,11,27,17,18,9.00
2018,11,27,17,19,9.00
2018,11,27,17,20,9.00
2018,11,27,17,21,8.90
2018,11,27,17,22,8.90
2018,11,27,17,23,8.90
2018,11,27,17,24,8.90
2018,11,27,17,25,8.90
2018,11,27,17,26,8.90
2018,11,27,17,27,8.90
2018,11,27,17,28,8.90
2018,11,27,17,29,8.90
2018,11,27,17,30,8.90
2018,11,27,17,31,8.90
2018,11,27,17,32,8.90
2018,11,27,17,33,8.90
2018,11,27,17,34,8.90
2018,11,27,17,35,8.90
2018,11,27,17,36,8.90
2018,11,27,17,37,8.90
2018,11,27,17,38,8.90
2018,11,27,17,39,8.90
2018,11,27,17,40,8.90
2018,11,27,17,41,8.90
2018,11,27,17,42,8.90
2018,11,27,17,43,8.90
2018,11,27,17,44,8.90
2018,11,27,17,45,8.90
2018,11,27,17,46,8.90
2018,11,27,17,47,8.90
2018,11,27,17,48,8.90
2018,11,27,17,49,8.90
2018,11,27,17,50,8.90
2018,11,27,17,51,8.90
2018,11,27,17,52,8.80
2018,11,27,17,53,8.80
2018,11,27,17,54,8.80
2018,11,27,17,55,8.80
2018,11,27,17,56,8.80
2018,11,27,17,57,8.80
2018,11,27,17,58,8.80
2018,11,27,17,59,8.80
2018,11,27,18,00,8.80
2018,11,27,18,01,8.80
2018,11,27,18,02,8.80
2018,11,27,18,03,8.80
2018,11,27,18,04,8.80
2018,11,27,18,05,8.80
2018,11,27,18,06,8.80
2018,11,27,18,07,8.80
2018,11,27,18,08,8.80
2018,11,27,18,09,8.80
2018,11,27,18,10,8.80
2018,11,27,18,11,8.80
2018,11,27,18,12,8.80
2018,11,27,18,13,8.80
2018,11,27,18,14,8.80
2018,11,27,18,15,8.80
2018,11,27,18,16,8.80
2018,11,27,18,17,8.90
2018,11,27,18,18,8.90
2018,11,27,18,19,8.90
2018,11,27,18,20,8.90
2018,11,27,18,21,8.90
2018,11,27,18,22,8.90
2018,11,27,18,23,8.90
2018,11,27,18,24,8.90
2018,11,27,18,25,8.90
2018,11,27,18,26,8.90
2018,11,27,18,27,8.90
2018,11,27,18,28,8.90
2018,11,27,18,29,8.90
2018,11,27,18,30,8.90
2018,11,27,18,31,8.90
2018,11,27,18,32,8.90
2018,11,27,18,33,8.90
2018,11,27,18,34,8.90
2018,11,27,18,35,8.90
2018,11,27,18,36,8.90
2018,11,27,18,37,8.90
2018,11,27,18,38,8.90
2018,11,27,18,39,8.90
2018,11,27,18,40,8.90
2018,11,27,18,41,8.90
2018,11,27,18,42,8.90
2018,11,27,18,43,8.90
2018,11,27,18,44,8.90
2018,11,27,18,45,8.90
2018,11,27,18,46,8.90
2018,11,27,18,47,8.90
2018,11,27,18,48,8.80
2018,11,27,18,49,8.80
2018,11,27,18,50,8.80
2018,11,27,18,51,8.80
2018,11,27,18,52,8.80
2018,11,27,18,53,8.80
2018,11,27,18,54,8.80
2018,11,27,18,55,8.80
2018,11,27,18,56,8.90
2018,11,27,18,57,8.90
2018,11,27,18,58,8.80
2018,11,27,18,59,8.80
2018,11,27,19,00,8.80
2018,11,27,19,01,8.80
2018,11,27,19,02,8.80
2018,11,27,19,03,8.80
2018,11,27,19,04,8.80
2018,11,27,19,05,8.80
2018,11,27,19,06,8.80
2018,11,27,19,07,8.80
2018,11,27,19,08,8.80
2018,11,27,19,09,8.80
2018,11,27,19,10,8.80
2018,11,27,19,11,8.80
2018,11,27,19,12,8.80
2018,11,27,19,13,8.80
2018,11,27,19,14,8.80
2018,11,27,19,15,8.80
2018,11,27,19,16,8.90
2018,11,27,19,17,8.90
2018,11,27,19,18,8.90
2018,11,27,19,19,8.90
2018,11,27,19,20,8.90
2018,11,27,19,21,8.90
2018,11,27,19,22,8.90
2018,11,27,19,23,8.90
2018,11,27,19,24,8.90
2018,11,27,19,25,8.90
2018,11,27,19,26,8.90
2018,11,27,19,27,8.90
2018,11,27,19,28,8.90
2018,11,27,19,29,8.90
2018,11,27,19,30,8.90
2018,11,27,19,31,8.90
2018,11,27,19,32,8.90
2018,11,27,19,33,8.90
2018,11,27,19,34,8.90
2018,11,27,19,35,8.90
2018,11,27,19,36,8.90
2018,11,27,19,37,8.90
2018,11,27,19,38,8.90
2018,11,27,19,39,8.90
2018,11,27,19,40,8.90
2018,11,27,19,41,8.90
2018,11,27,19,42,9.00
2018,11,27,19,43,9.00
2018,11,27,19,44,9.00
2018,11,27,19,45,9.10
2018,11,27,19,46,9.10
2018,11,27,19,47,9.10
2018,11,27,19,48,9.10
2018,11,27,19,49,9.20
2018,11,27,19,50,9.20
2018,11,27,19,51,9.20
2018,11,27,19,52,9.20
2018,11,27,19,53,9.20
2018,11,27,19,54,9.20
2018,11,27,19,55,9.20
2018,11,27,19,56,9.20
2018,11,27,19,57,9.20
2018,11,27,19,58,9.20
2018,11,27,19,59,9.20
2018,11,27,20,00,9.10
2018,11,27,20,01,9.10
2018,11,27,20,02,9.10
2018,11,27,20,03,9.10
2018,11,27,20,04,9.10
2018,11,27,20,05,9.10
2018,11,27,20,06,9.10
2018,11,27,20,07,9.00
2018,11,27,20,08,9.00
2018,11,27,20,09,9.00
2018,11,27,20,10,9.00
2018,11,27,20,11,8.90
2018,11,27,20,12,8.90
2018,11,27,20,13,8.90
2018,11,27,20,14,8.90
2018,11,27,20,15,8.90
2018,11,27,20,16,8.90